Weather History for Orange, MA

Change the Weather History Date:

Thursday, January 12, 2012

  Actual Average Record
Temperature  
Mean Temperature 32 °F -  
Max Temperature 35 °F 28 °F 48 °F (2006)
Min Temperature 30 °F 11 °F 3 °F (2001)
Degree Days  
Heating Degree Days 32    
Moisture  
Dew Point 30 °F    
Average Humidity 89    
Maximum Humidity 100    
Minimum Humidity 75    
Precipitation  
Precipitation 0.40 in - - ()
Sea Level Pressure  
Sea Level Pressure 29.73 in    
Wind  
Wind Speed 7 mph (NE)    
Max Wind Speed 15 mph    
Max Gust Speed 26 mph    
Visibility 4 miles    
Events Fog , Rain , Snow    
Averages and records for this station are not official NWS values.
T = Trace of Precipitation, MM = Missing Value Source: NWS Daily Summary

Daily Weather History Graph

Daily Weather History Graph

Search for Another Location

Airport:

Trip Planner

Search our weather history database for the weather conditions in past years. The results will help you decide how hot, cold, wet, or windy it might be!

Date:

Astronomy

Jan. 12, 2012 Rise Set
Actual Time 7:17 AM EST 4:37 PM EST
Civil Twilight 6:46 AM EST 5:08 PM EST
Nautical Twilight 6:11 AM EST 5:43 PM EST
Astronomical Twilight 5:37 AM EST 6:17 PM EST
Moon 8:45 PM EST (1/12) 8:54 AM EST (1/12)
Length of Visible Light 10h 22m
Length of Day
9h 19m
Waning Gibbous, 87% of the Moon is Illuminated
Jan 12
Waning Gibbous
Jan 16
Last Quarter
Jan 23
New
Jan 30
First Quarter
Feb 7
Full

Hourly Weather History & Observations

Time (EST) Temp. Windchill Dew Point Humidity Pressure Visibility Wind Dir Wind Speed Gust Speed Precip Events Conditions
12:52 AM 34.0 °F 28.8 °F 27.0 °F 75% 29.99 in 10.0 mi ESE 5.8 mph - N/A   Overcast
1:52 AM 34.0 °F 31.0 °F 28.0 °F 79% 29.99 in 10.0 mi Variable 3.5 mph - N/A   Overcast
2:05 AM 33.8 °F - 28.4 °F 81% 29.96 in 10.0 mi Calm Calm - N/A   Overcast
2:52 AM 34.0 °F - 28.9 °F 82% 29.96 in 10.0 mi Calm Calm - N/A   Overcast
3:39 AM 33.8 °F - 30.2 °F 87% 29.92 in 2.5 mi Calm Calm - 0.01 in Snow Light Snow
3:52 AM 33.1 °F - 32.0 °F 96% 29.93 in 2.5 mi Calm Calm - 0.01 in Snow Light Snow
3:59 AM 33.8 °F - 32.0 °F 93% 29.91 in 4.0 mi Calm Calm - 0.00 in Snow Light Snow
4:16 AM 33.8 °F - 30.2 °F 87% 29.90 in 2.5 mi Calm Calm - 0.01 in Snow Light Snow
4:52 AM 34.0 °F 31.0 °F 32.0 °F 92% 29.90 in 4.0 mi Variable 3.5 mph - 0.02 in Snow Light Snow
5:02 AM 33.8 °F 28.6 °F 32.0 °F 93% 29.88 in 2.0 mi Variable 5.8 mph - 0.00 in Snow Light Snow
5:29 AM 33.8 °F 27.0 °F 32.0 °F 93% 29.86 in 1.8 mi ENE 8.1 mph - 0.02 in Snow Light Snow
5:52 AM 33.1 °F 26.1 °F 32.0 °F 96% 29.86 in 1.8 mi ENE 8.1 mph 17.3 mph 0.03 in Snow Light Snow
6:09 AM 33.8 °F 25.8 °F 32.0 °F 93% 29.83 in 2.0 mi ENE 10.4 mph - 0.01 in Snow Light Snow
6:34 AM 33.8 °F 25.8 °F 30.2 °F 87% 29.81 in 3.0 mi ENE 10.4 mph 18.4 mph 0.01 in Snow Light Snow
6:41 AM 33.8 °F 25.8 °F 30.2 °F 87% 29.81 in 2.5 mi ENE 10.4 mph 18.4 mph 0.02 in Snow Light Snow
6:52 AM 34.0 °F 26.6 °F 30.9 °F 89% 29.82 in 4.0 mi East 9.2 mph 18.4 mph 0.02 in Snow Light Snow
7:02 AM 33.8 °F 26.4 °F 30.2 °F 87% 29.79 in 4.0 mi ENE 9.2 mph 20.7 mph 0.00 in Snow Light Snow
7:17 AM 33.8 °F 27.7 °F 30.2 °F 87% 29.78 in 2.5 mi NE 6.9 mph 21.9 mph 0.00 in Snow Light Snow
7:27 AM 33.8 °F 26.4 °F 30.2 °F 87% 29.78 in 4.0 mi ENE 9.2 mph 23.0 mph 0.01 in Snow Light Snow
7:52 AM 34.0 °F 26.6 °F 30.9 °F 89% 29.79 in 3.0 mi ENE 9.2 mph - 0.01 in Snow Light Snow
7:54 AM 33.8 °F 24.3 °F 30.2 °F 87% 29.77 in 2.5 mi NE 13.8 mph 17.3 mph 0.00 in Snow Light Snow
8:17 AM 33.8 °F 25.3 °F 30.2 °F 87% 29.77 in 3.0 mi ENE 11.5 mph 20.7 mph 0.01 in Snow Light Snow
8:24 AM 33.8 °F 25.3 °F 30.2 °F 87% 29.77 in 1.8 mi ENE 11.5 mph 21.9 mph 0.01 in Snow Light Snow
8:29 AM 33.8 °F 24.8 °F 30.2 °F 87% 29.77 in 1.0 mi ENE 12.7 mph 21.9 mph 0.01 in Snow Light Snow
8:38 AM 33.8 °F 26.4 °F 30.2 °F 87% 29.75 in 0.5 mi NE 9.2 mph 20.7 mph 0.02 in Fog , Snow Snow
8:40 AM 33.8 °F 24.8 °F 30.2 °F 87% 29.76 in 0.5 mi NE 12.7 mph 19.6 mph 0.03 in Fog , Snow Snow
8:48 AM 33.8 °F 25.8 °F 30.2 °F 87% 29.75 in 0.5 mi NE 10.4 mph 17.3 mph 0.04 in Fog , Snow Snow
8:52 AM 33.1 °F 24.9 °F 30.9 °F 92% 29.77 in 0.5 mi ENE 10.4 mph 16.1 mph 0.04 in Fog , Snow Snow
8:58 AM 33.8 °F 27.7 °F 30.2 °F 87% 29.74 in 1.0 mi ENE 6.9 mph - 0.00 in Snow Light Snow
9:04 AM 33.8 °F 26.4 °F 30.2 °F 87% 29.73 in 1.5 mi NE 9.2 mph - 0.01 in Snow Light Snow
9:24 AM 33.8 °F 25.8 °F 30.2 °F 87% 29.73 in 2.0 mi NE 10.4 mph 18.4 mph 0.01 in Snow Light Snow
9:36 AM 33.8 °F 24.3 °F 30.2 °F 87% 29.71 in 3.0 mi ENE 13.8 mph 20.7 mph 0.01 in Snow Light Snow
9:42 AM 33.8 °F 25.8 °F 30.2 °F 87% 29.71 in 1.8 mi NE 10.4 mph 23.0 mph 0.01 in Snow Light Snow
9:46 AM 33.8 °F 26.4 °F 30.2 °F 87% 29.70 in 1.0 mi NE 9.2 mph 23.0 mph 0.02 in Snow Light Snow
9:48 AM 33.8 °F 26.4 °F 30.2 °F 87% 29.70 in 0.8 mi NE 9.2 mph 19.6 mph 0.02 in Snow Light Snow
9:52 AM 33.1 °F 23.9 °F 30.9 °F 92% 29.72 in 0.5 mi NE 12.7 mph 19.6 mph 0.03 in Fog , Snow Snow
9:57 AM 33.8 °F 25.8 °F 30.2 °F 87% 29.70 in 0.2 mi NE 10.4 mph 20.7 mph 0.01 in Fog , Snow Heavy Snow
10:30 AM 33.8 °F 27.0 °F 32.0 °F 93% 29.69 in 1.0 mi NE 8.1 mph - 0.09 in Snow Light Snow
10:32 AM 33.8 °F 24.8 °F 32.0 °F 93% 29.68 in 1.2 mi NE 12.7 mph 18.4 mph 0.09 in Snow Light Snow
10:35 AM 33.8 °F 26.4 °F 30.2 °F 87% 29.68 in 1.0 mi NNE 9.2 mph 18.4 mph 0.09 in Snow Light Snow
10:41 AM 33.8 °F 24.8 °F 30.2 °F 87% 29.65 in 0.8 mi NNE 12.7 mph 18.4 mph 0.11 in Snow Light Snow
10:52 AM 33.1 °F 24.4 °F 30.9 °F 92% 29.67 in 0.5 mi NNE 11.5 mph 18.4 mph 0.13 in Fog , Snow Light Snow
11:11 AM 33.8 °F 27.7 °F 30.2 °F 87% 29.64 in 1.2 mi North 6.9 mph - 0.02 in Snow Light Snow
11:15 AM 33.8 °F 24.8 °F 30.2 °F 87% 29.64 in 1.5 mi North 12.7 mph 17.3 mph 0.02 in Snow Light Snow
11:23 AM 33.8 °F 24.8 °F 30.2 °F 87% 29.63 in 3.0 mi NNE 12.7 mph 20.7 mph 0.02 in Snow Light Snow
11:52 AM 33.1 °F 24.4 °F 30.0 °F 89% 29.62 in 3.0 mi ENE 11.5 mph 23.0 mph 0.03 in Rain Light Rain
12:52 PM 34.0 °F 25.0 °F 30.9 °F 89% 29.57 in 9.0 mi NE 12.7 mph 20.7 mph 0.08 in Rain Light Rain
1:52 PM 35.1 °F 25.5 °F 30.9 °F 85% 29.55 in 10.0 mi NE 15.0 mph 26.5 mph 0.00 in   Overcast
2:52 PM 34.0 °F 29.8 °F 30.0 °F 85% 29.56 in 10.0 mi North 4.6 mph - N/A   Overcast
3:26 PM 33.8 °F 25.3 °F 30.2 °F 87% 29.53 in 10.0 mi North 11.5 mph - N/A   Overcast
3:52 PM 33.1 °F 25.5 °F 30.0 °F 89% 29.56 in 10.0 mi North 9.2 mph - N/A   Overcast
4:52 PM 34.0 °F 26.0 °F 30.0 °F 85% 29.57 in 10.0 mi North 10.4 mph - N/A   Overcast
5:52 PM 33.1 °F 26.9 °F 30.0 °F 89% 29.59 in 10.0 mi NNW 6.9 mph - N/A   Overcast
6:52 PM 32.0 °F 25.6 °F 30.0 °F 92% 29.57 in 10.0 mi North 6.9 mph - N/A   Overcast
7:52 PM 32.0 °F 25.6 °F 30.0 °F 92% 29.59 in 9.0 mi North 6.9 mph - N/A   Overcast
9:04 PM 32.0 °F - 30.2 °F 93% 29.57 in 10.0 mi Calm Calm - N/A   Overcast
9:52 PM 30.9 °F 27.5 °F 30.0 °F 96% 29.59 in 7.0 mi NNW 3.5 mph - N/A   Overcast
10:05 PM 30.2 °F 26.7 °F 30.2 °F 100% 29.57 in 10.0 mi NNW 3.5 mph - N/A   Overcast
10:40 PM 30.2 °F - 30.2 °F 100% 29.56 in 5.0 mi Calm Calm - N/A   Overcast
10:52 PM 30.9 °F - 30.0 °F 96% 29.59 in 4.0 mi Calm Calm - N/A   Overcast
11:44 PM 30.2 °F - 30.2 °F 100% 29.55 in 4.0 mi Calm Calm - N/A   Overcast
11:52 PM 30.9 °F - 30.9 °F 100% 29.56 in 5.0 mi Calm Calm - N/A   Overcast